Regional Weather Roundup
Issued by NWS

Home | Current Version | Previous Version | Text Only | Print | Product List | Glossary Off
Versions: 1 2 3 4 5 6 7 8 9 10 11 12 13 14 15 16 17 18 19 20 21 22 23 24 25 26 27 28 29 30 31 32 33 34 35 36 37 38 39 40 41 42 43 44 45 46 47 48 49 50

000
ASUS43 KOAX 120702
RWRNE

WEATHER ROUNDUP FOR NEBRASKA
NATIONAL WEATHER SERVICE OMAHA NE
200 AM CDT SAT JUL 12 2014

NOTES: SATELLITE DATA IS BEING USED TO AUGMENT CLOUD COVER ABOVE
       12000 FEET.
       "FAIR" INDICATES FEW OR NO CLOUDS BELOW 12,000 FEET WITH NO
       SIGNIFICANT WEATHER AND/OR OBSTRUCTIONS TO VISIBILITY.

  * THESE STATIONS DO NOT REPORT WEATHER SUCH AS RAIN...SNOW OR FOG.

NEZ001>004-019>022-054>056-120800-
NEBRASKA PANHANDLE

CITY           SKY/WX    TMP DP  RH WIND       PRES   REMARKS
SCOTTSBLUFF    MOCLDY    62  61  96 SW8       30.18R
ALLIANCE       CLOUDY    60  58  92 NE7       30.15F
CHADRON        CLOUDY    65  59  81 SE5       30.14S
KIMBALL        CLOUDY    63  62  97 NW8       30.20R
SIDNEY         CLOUDY    65  62  90 N13       30.16R
$$

NEZ057>060-069>072-079>082-120800-
SOUTHWEST NEBRASKA

CITY           SKY/WX    TMP DP  RH WIND       PRES   REMARKS
NORTH PLATTE   CLOUDY    68  65  90 S3        30.03S
IMPERIAL       CLOUDY    71  62  73 N13       30.02F
LEXINGTON      CLOUDY    75  64  67 S7        30.00R
MCCOOK         CLOUDY    76  70  82 SW5       30.02S
OGALLALA       LGT RAIN  68  65  91 N8        30.05F
$$

NEZ005>010-023>029-035>040-094-120800-
NORTH CENTRAL NEBRASKA

CITY           SKY/WX    TMP DP  RH WIND       PRES   REMARKS
VALENTINE      CLOUDY    69  65  86 CALM      30.06F
AINSWORTH      CLOUDY    68  65  92 SE8       30.07S
BROKEN BOW     LGT RAIN  74  73  97 N14       30.05R FOG
O`NEILL        TSTM      70  66  89 SE7       30.07F
ORD            LGT RAIN  73  71  93 N7        30.01S FOG
$$

NEZ041-046>049-061>064-073>077-083>087-120800-
SOUTH CENTRAL NEBRASKA

CITY           SKY/WX    TMP DP  RH WIND       PRES   REMARKS
GRAND ISLAND   CLOUDY    79  64  60 S9        29.99S
AURORA         MOCLDY    77  67  71 S10G16    29.99S
HASTINGS       MOCLDY    77  61  57 S8        30.00S
HEBRON         MOCLDY    80  64  57 S10G17    29.99F
HOLDREGE       CLOUDY    75  60  59 SW9       30.02R
KEARNEY *      CLOUDY    79  63  57 SW12G18   30.01R
YORK           MOCLDY    75  68  78 S9        29.99S
$$

NEZ011>018-030>034-042>045-120800-
NORTHEAST NEBRASKA

CITY           SKY/WX    TMP DP  RH WIND       PRES   REMARKS
NORFOLK        MOCLDY    73  68  84 NE8       30.02R
ALBION         CLOUDY    73  69  88 CALM      30.04R
BLAIR          MOCLDY    75  71  89 N3        29.99S
FREMONT        MOCLDY    76  73  92 N6        30.00S
TEKAMAH        CLOUDY    75  70  84 N18       30.00R
WAYNE          CLOUDY    71  69  95 N3        30.05R
$$

NEZ050>053-065>068-078-088>093-120800-
SOUTHEAST NEBRASKA

CITY           SKY/WX    TMP DP  RH WIND       PRES   REMARKS
LINCOLN        PTCLDY    80  66  62 SW5       29.98S
OMAHA EPPLEY   MOCLDY    77  73  87 SE5       29.97S
BEATRICE       MOCLDY    76  65  68 S12       29.98F
FALLS CITY     CLEAR     78  70  76 S10       30.00S
NEBRASKA CITY  PTCLDY    79  67  67 SW15G22   29.98S
PLATTSMOUTH    PTCLDY    77  70  79 S9        29.98S
$$

NEZ044-045-051>053-067-120800-
OMAHA AREA

CITY           SKY/WX    TMP DP  RH WIND       PRES   REMARKS
OMAHA EPPLEY   MOCLDY    77  73  87 SE5       29.97S
BLAIR          MOCLDY    75  71  89 N3        29.99S
FREMONT        MOCLDY    76  73  92 N6        30.00S
MILLARD        MOCLDY    76  74  92 CALM      29.98R
OFFUTT AFB     CLOUDY    74  74 100 VRB2      29.97S
PLATTSMOUTH    PTCLDY    77  70  79 S9        29.98S
WAHOO          FAIR      74  71  91 NW3       29.99R
$$


USA.gov is the U.S. government's official web portal to all federal, state and local government web resources and services.